FW4331 Weather Reports


time (UTC)temp
C
wind
direction
speed
KPH
gust
KPH
rain 1hr
cm
rain 24hr
cm
rain mn
cm
humidity
%
barometer
mb
20260904100051 -17 231 0.0 0.0 0.00 1.35 0.05 1012.1
20260904094559 20 236 0.0 0.0 0.00 1.35 0.05 49 1012.0
20260904093039 20 235 0.0 0.0 0.00 1.35 0.05 49 1011.9
20260904091536 20 265 0.0 0.0 0.00 1.35 0.05 49 1012.1
20260904090137 20 265 0.0 0.0 0.00 1.35 0.05 49 1012.0
20260904084533 20 170 0.0 0.0 0.00 1.35 0.05 49 1012.0
20260904083038 20 169 0.0 0.0 0.00 1.35 0.05 49 1012.2
20260904081527 20 169 0.0 0.0 0.00 1.35 0.05 49 1012.3
20260904080025 21 255 0.0 1.6 0.00 1.35 0.05 49 1012.1
20260904074522 21 272 0.0 3.2 0.00 1.35 0.05 49 1012.1
20260904073023 21 140 0.0 3.2 0.00 1.35 0.05 48 1012.1
20260904071517 21 175 0.0 4.8 0.00 1.35 0.05 48 1012.1
20260904070016 21 51 0.0 3.2 0.00 1.35 0.05 48 1012.0
20260904064515 21 264 0.0 1.6 0.00 1.35 0.05 48 1011.8
20260904063011 21 278 0.0 6.4 0.00 1.35 0.05 48 1011.8
20260904061508 21 233 3.2 8.0 0.00 1.35 0.05 48 1011.9
20260904060014 21 260 0.0 0.0 0.03 1.35 0.05 48 1011.3
20260904054504 21 229 0.0 0.0 0.05 1.35 0.05 48 1010.8
20260904053059 21 134 0.0 3.2 0.05 1.35 0.05 47 1011.5
20260904051553 21 221 1.6 4.8 0.05 1.35 0.05 47 1012.7
20260904050048 21 147 0.0 4.8 0.03 1.32 0.03 46 1013.6
20260904044548 21 53 0.0 3.2 0.91 1.30 0.00 44 1013.9
20260904043043 21 81 0.0 11.3 1.30 1.30 0.00 40 1013.9
20260904041534 21 307 3.2 22.5 1.30 1.30 0.00 40 1014.8
20260904040036 21 30 20.9 38.6 1.30 1.30 0.00 42 1014.5
20260904034525 23 32 17.7 56.3 0.33 0.33 0.33 56 1014.2
20260904033025 25 68 12.9 27.4 0.00 0.00 0.00 51 1013.8
20260904031521 26 293 6.4 17.7 0.00 0.00 0.00 42 1012.6
20260904030020 26 271 0.0 1.6 0.00 0.00 0.00 52 1012.1
20260904024526 27 300 1.6 6.4 0.00 0.00 0.00 57 1012.2
20260904023016 27 251 0.0 0.0 0.00 0.00 0.00 57 1012.6
20260904021519 27 274 0.0 0.0 0.00 0.00 0.00 58 1012.6
20260904020011 27 161 0.0 0.0 0.00 0.00 0.00 59 1012.7
20260904014510 27 160 0.0 0.0 0.00 0.00 0.00 60 1012.6
20260904013008 27 160 0.0 0.0 0.00 0.00 0.00 61 1012.7
20260904011505 27 160 0.0 0.0 0.00 0.00 0.00 61 1012.7
20260904010009 27 274 0.0 0.0 0.00 0.00 0.00 62 1012.5
20260904004501 27 217 0.0 0.0 0.00 0.00 0.00 61 1012.8
20260904003123 28 201 0.0 0.0 0.00 0.00 0.00 61 1012.9
20260904001558 28 262 0.0 3.2 0.00 0.00 0.00 61 1013.1
20260904000056 28 278 0.0 1.6 0.00 0.00 0.00 61 1013.0
20260903234553 28 278 0.0 6.4 0.00 0.00 0.00 60 1013.0
20260903233056 29 273 1.6 4.8 0.00 0.00 0.00 59 1012.6
20260903231550 30 165 0.0 3.2 0.00 0.00 0.00 58 1012.5
20260903230050 30 227 3.2 8.0 0.00 0.00 0.00 57 1012.6
20260903224548 30 262 0.0 8.0 0.00 0.00 0.00 57 1012.3
20260903223103 31 262 3.2 8.0 0.00 0.00 0.00 55 1012.1
20260903221547 31 269 1.6 11.3 0.00 0.00 0.00 54 1012.1
20260903220045 31 200 4.8 12.9 0.00 0.00 0.00 54 1012.1
20260903214544 32 246 6.4 11.3 0.00 0.00 0.00 54 1012.3
20260903213045 32 297 6.4 16.1 0.00 0.00 0.00 53 1012.4
20260903211600 32 217 6.4 16.1 0.00 0.00 0.00 53 1012.3
20260903210041 32 228 6.4 11.3 0.00 0.00 0.00 52 1012.4
20260903204540 32 236 6.4 12.9 0.00 0.00 0.00 50 1012.5
20260903203040 32 242 3.2 16.1 0.00 0.00 0.00 52 1012.5
20260903201537 32 209 8.0 12.9 0.00 0.00 0.00 52 1012.7
20260903200034 32 249 6.4 12.9 0.00 0.00 0.00 49 1013.0
20260903194530 32 269 4.8 11.3 0.00 0.03 0.00 50 1013.2
20260903193027 32 222 6.4 17.7 0.00 0.03 0.00 49 1013.5
20260903191529 32 284 8.0 12.9 0.00 0.03 0.00 49 1013.7
20260903190025 32 216 4.8 12.9 0.00 0.03 0.00 49 1013.8
20260903184523 32 245 4.8 11.3 0.00 0.03 0.00 48 1014.0
20260903183021 31 281 4.8 14.5 0.00 0.03 0.00 47 1014.2
20260903181523 31 245 8.0 12.9 0.00 0.03 0.00 46 1014.4
20260903180018 31 129 3.2 8.0 0.00 0.03 0.00 37 1014.2
20260903174512 31 229 1.6 9.7 0.00 0.03 0.00 28 1014.5
20260903173008 30 273 3.2 8.0 0.00 0.03 0.00 28 1015.1
20260903171509 30 247 4.8 9.7 0.00 0.03 0.00 24 1015.2
20260903170004 30 329 0.0 6.4 0.00 0.03 0.00 27 1015.9
20260903164501 30 37 4.8 9.7 0.00 0.03 0.00 25 1016.0
20260903163056 28 279 1.6 11.3 0.00 0.03 0.00 28 1016.2
20260903161551 27 52 0.0 8.0 0.00 0.03 0.00 33 1016.3
20260903160048 27 56 8.0 17.7 0.00 0.03 0.00 33 1016.6
20260903154543 27 351 1.6 6.4 0.00 0.03 0.00 33 1016.6
20260903153041 27 250 3.2 8.0 0.00 0.03 0.00 33 1016.2
20260903151537 26 252 1.6 6.4 0.00 0.03 0.00 33 1016.2
20260903150035 26 326 0.0 8.0 0.00 0.03 0.00 35 1016.3
20260903144530 26 227 4.8 9.7 0.00 0.03 0.00 35 1016.2
20260903143027 25 276 0.0 4.8 0.00 0.03 0.00 37 1016.2
20260903141524 25 225 1.6 4.8 0.00 0.03 0.00 36 1016.0
20260903140037 25 240 0.0 6.4 0.00 0.03 0.00 37 1015.8
20260903134521 24 99 3.2 6.4 0.00 0.03 0.00 39 1015.9
20260903133014 24 133 0.0 1.6 0.00 0.03 0.00 40 1016.0
20260903131511 23 122 0.0 9.7 0.00 0.03 0.00 42 1016.3
20260903130005 23 108 3.2 8.0 0.00 0.03 0.00 44 1016.6
20260903124502 22 34 6.4 16.1 0.00 0.03 0.00 45 1017.0
20260903123058 22 23 1.6 9.7 0.00 0.03 0.00 46 1016.9
20260903121555 22 62 6.4 14.5 0.00 0.03 0.00 47 1016.9
20260903120056 22 69 4.8 14.5 0.00 0.03 0.00 48 1016.9
20260903114653 22 27 9.7 17.7 0.00 0.03 0.00 48 1016.8
20260903113046 22 17 6.4 14.5 0.00 0.03 0.00 48 1016.6
20260903111540 -17 0.0 0.0 0.00 0.03 0.00 1016.1
20260903110041 -17 0.0 0.0 0.00 0.03 0.00 1015.9
20260903104530 -17 0.0 0.0 0.00 0.03 0.00 1015.4
20260903103028 -17 0.0 0.0 0.00 0.03 0.00 1014.9
20260903101522 -17 20 0.0 0.0 0.00 0.03 0.00 1014.9